Tracking 27380 objects as of 5-Jun-2023
HD Live streaming from Space Station
objects crossing your sky now

ORBCOMM FM 103

Track ORBCOMM FM 103 now!
10-day predictions
ORBCOMM FM 103 is classified as:


NORAD ID: 40091
Int'l Code: 2014-040F
Perigee: 713.2 km
Apogee: 715.3 km
Inclination: 47.0 °
Period: 98.9 minutes
Semi major axis: 7085 km
RCS: Unknown
Launch date: July 14, 2014
Source: United States (US)
Launch site: AIR FORCE EASTERN TEST RANGE (AFETR)
Your satellite tracking list
Your tracking list is empty




NASA's NSSDC Master Catalog

Two Line Element Set (TLE):
1 40091U 14040F   23156.63396445  .00000619  00000-0  17793-3 0  9996
2 40091  47.0062 276.9421 0001467 141.1486 218.9505 14.55701737455834
Source of the keplerian elements: AFSPC